Weather History for Sturgeon Bay, WI

Change the Weather History Date:

Tuesday, November 22, 2011

  Actual Average Record
Temperature  
Mean Temperature 34 °F -  
Max Temperature 39 °F 38 °F 57 °F (2012)
Min Temperature 30 °F 26 °F 5 °F (1929)
Degree Days  
Heating Degree Days 30    
Moisture  
Dew Point 30 °F    
Average Humidity 83    
Maximum Humidity 93    
Minimum Humidity 75    
Precipitation  
Precipitation 0.00 in - - ()
Sea Level Pressure  
Sea Level Pressure 30.14 in    
Wind  
Wind Speed 5 mph (ENE)    
Max Wind Speed 9 mph    
Max Gust Speed -    
Visibility 10 miles    
Events      
Averages and records for this station are not official NWS values.
T = Trace of Precipitation, MM = Missing Value Source: NWS Daily Summary

Daily Weather History Graph

Daily Weather History Graph

Search for Another Location

Airport:

Trip Planner

Search our weather history database for the weather conditions in past years. The results will help you decide how hot, cold, wet, or windy it might be!

Date:

Astronomy

Nov. 22, 2011 Rise Set
Actual Time 6:55 AM CST 4:15 PM CST
Civil Twilight 6:23 AM CST 4:47 PM CST
Nautical Twilight 5:47 AM CST 5:23 PM CST
Astronomical Twilight 5:12 AM CST 5:58 PM CST
Moon 3:40 AM CST 2:18 PM CST
Length of Visible Light 10h 24m
Length of Day
9h 19m
Waning Crescent, 9% of the Moon is Illuminated
Nov 22
Waning Crescent
Nov 25
New
Dec 2
First Quarter
Dec 10
Full
Dec 17
Last Quarter

Hourly Weather History & Observations

Time (CST) Temp. Windchill Dew Point Humidity Pressure Visibility Wind Dir Wind Speed Gust Speed Precip Events Conditions
12:35 AM 32.0 °F 28.7 °F 26.6 °F 80% 30.31 in 10.0 mi NNE 3.5 mph - N/A   Overcast
12:55 AM 32.0 °F 27.5 °F 26.6 °F 80% 30.31 in 10.0 mi NE 4.6 mph - N/A   Overcast
1:15 AM 33.8 °F 29.6 °F 26.6 °F 75% 30.31 in 10.0 mi NE 4.6 mph - N/A   Overcast
1:35 AM 32.0 °F 26.4 °F 26.6 °F 80% 30.31 in 10.0 mi NE 5.8 mph - N/A   Overcast
1:55 AM 32.0 °F 26.4 °F 26.6 °F 80% 30.30 in 10.0 mi NE 5.8 mph - N/A   Overcast
2:15 AM 32.0 °F 27.5 °F 26.6 °F 80% 30.29 in 10.0 mi NE 4.6 mph - N/A   Overcast
2:35 AM 32.0 °F 26.4 °F 26.6 °F 80% 30.28 in 10.0 mi NE 5.8 mph - N/A   Overcast
2:55 AM 32.0 °F 27.5 °F 26.6 °F 80% 30.27 in 10.0 mi NE 4.6 mph - N/A   Mostly Cloudy
3:15 AM 32.0 °F 28.7 °F 26.6 °F 80% 30.27 in 10.0 mi NE 3.5 mph - N/A   Clear
3:35 AM 30.2 °F 26.7 °F 26.6 °F 86% 30.27 in 10.0 mi NE 3.5 mph - N/A   Clear
3:55 AM 30.2 °F 26.7 °F 28.4 °F 93% 30.27 in 10.0 mi ENE 3.5 mph - N/A   Mostly Cloudy
4:35 AM 33.8 °F 30.8 °F 28.4 °F 81% 30.25 in 10.0 mi East 3.5 mph - N/A   Clear
4:55 AM 33.8 °F 30.8 °F 28.4 °F 81% 30.24 in 10.0 mi ENE 3.5 mph - N/A   Clear
5:15 AM 33.8 °F 30.8 °F 28.4 °F 81% 30.23 in 10.0 mi ENE 3.5 mph - N/A   Mostly Cloudy
5:55 AM 33.8 °F 29.6 °F 28.4 °F 81% 30.22 in 10.0 mi East 4.6 mph - N/A   Mostly Cloudy
6:15 AM 33.8 °F 29.6 °F 28.4 °F 81% 30.22 in 10.0 mi East 4.6 mph - N/A   Mostly Cloudy
6:35 AM 33.8 °F 30.8 °F 28.4 °F 81% 30.22 in 10.0 mi ESE 3.5 mph - N/A   Mostly Cloudy
6:55 AM 35.6 °F 32.8 °F 28.4 °F 75% 30.24 in 10.0 mi SE 3.5 mph - N/A   Overcast
7:15 AM 35.6 °F 32.8 °F 30.2 °F 81% 30.23 in 10.0 mi East 3.5 mph - N/A   Mostly Cloudy
7:35 AM 35.6 °F 30.7 °F 30.2 °F 81% 30.23 in 10.0 mi ESE 5.8 mph - N/A   Clear
7:55 AM 35.6 °F 32.8 °F 30.2 °F 81% 30.22 in 10.0 mi East 3.5 mph - N/A   Mostly Cloudy
8:15 AM 35.6 °F 32.8 °F 30.2 °F 81% 30.21 in 10.0 mi East 3.5 mph - N/A   Scattered Clouds
8:35 AM 35.6 °F 31.7 °F 32.0 °F 87% 30.21 in 10.0 mi East 4.6 mph - N/A   Mostly Cloudy
8:55 AM 37.4 °F 32.1 °F 33.8 °F 87% 30.19 in 10.0 mi ESE 6.9 mph - N/A   Overcast
9:15 AM 37.4 °F 32.1 °F 33.8 °F 87% 30.19 in 10.0 mi ESE 6.9 mph - N/A   Overcast
9:35 AM 37.4 °F 31.4 °F 33.8 °F 87% 30.18 in 10.0 mi ESE 8.1 mph - N/A   Overcast
9:55 AM 37.4 °F 31.4 °F 33.8 °F 87% 30.18 in 10.0 mi SE 8.1 mph - N/A   Mostly Cloudy
10:55 AM 39.2 °F 33.6 °F 33.8 °F 81% 30.14 in 10.0 mi ESE 8.1 mph - N/A   Overcast
11:35 AM 39.2 °F 33.0 °F 32.0 °F 75% 30.13 in 10.0 mi East 9.2 mph - N/A   Mostly Cloudy
11:55 AM 39.2 °F 33.6 °F 33.8 °F 81% 30.12 in 10.0 mi ESE 8.1 mph - N/A   Overcast
12:15 PM 39.2 °F 34.2 °F 33.8 °F 81% 30.11 in 10.0 mi East 6.9 mph - N/A   Mostly Cloudy
12:35 PM 39.2 °F 35.0 °F 33.8 °F 81% 30.10 in 10.0 mi ESE 5.8 mph - N/A   Mostly Cloudy
1:35 PM 39.2 °F 35.0 °F 33.8 °F 81% 30.08 in 10.0 mi North 5.8 mph - N/A   Scattered Clouds
1:55 PM 39.2 °F 34.2 °F 32.0 °F 75% 30.06 in 10.0 mi NE 6.9 mph - N/A   Mostly Cloudy
2:15 PM 39.2 °F 33.6 °F 33.8 °F 81% 30.05 in 10.0 mi NE 8.1 mph - N/A   Mostly Cloudy
2:35 PM 39.2 °F 33.6 °F 32.0 °F 75% 30.04 in 10.0 mi NE 8.1 mph - N/A   Mostly Cloudy
2:55 PM 39.2 °F 33.6 °F 32.0 °F 75% 30.02 in 10.0 mi NE 8.1 mph - N/A   Mostly Cloudy
3:35 PM 37.4 °F 31.4 °F 32.0 °F 81% 30.02 in 10.0 mi NE 8.1 mph - N/A   Partly Cloudy
3:55 PM 37.4 °F 33.8 °F 32.0 °F 81% 30.02 in 10.0 mi NE 4.6 mph - N/A   Partly Cloudy
4:55 PM 35.6 °F 31.7 °F 30.2 °F 81% 30.03 in 10.0 mi NNE 4.6 mph - N/A   Clear
5:35 PM 35.6 °F 30.7 °F 32.0 °F 87% 30.04 in 10.0 mi NNE 5.8 mph - N/A   Overcast
5:55 PM 35.6 °F 29.9 °F 32.0 °F 87% 30.04 in 10.0 mi NNE 6.9 mph - N/A   Overcast
6:15 PM 35.6 °F 30.7 °F 32.0 °F 87% 30.04 in 10.0 mi NNE 5.8 mph - N/A   Overcast
6:35 PM 35.6 °F 30.7 °F 32.0 °F 87% 30.03 in 10.0 mi NNE 5.8 mph - N/A   Overcast
6:55 PM 35.6 °F 31.7 °F 32.0 °F 87% 30.02 in 10.0 mi NNE 4.6 mph - N/A   Scattered Clouds
7:35 PM 35.6 °F 31.7 °F 32.0 °F 87% 30.01 in 10.0 mi NE 4.6 mph - N/A   Clear
7:55 PM 33.8 °F 27.7 °F 30.2 °F 87% 30.02 in 10.0 mi North 6.9 mph - N/A   Clear
8:15 PM 33.8 °F 29.6 °F 28.4 °F 81% 30.03 in 10.0 mi North 4.6 mph - N/A   Clear
8:35 PM 33.8 °F 27.7 °F 30.2 °F 87% 30.03 in 10.0 mi North 6.9 mph - N/A   Clear
8:55 PM 33.8 °F 28.6 °F 30.2 °F 87% 30.02 in 10.0 mi NNE 5.8 mph - N/A   Clear
9:15 PM 33.8 °F 28.6 °F 30.2 °F 87% 30.02 in 10.0 mi North 5.8 mph - N/A   Clear
10:15 PM 35.6 °F 31.7 °F 30.2 °F 81% 30.03 in 10.0 mi NNE 4.6 mph - N/A   Clear
10:35 PM 35.6 °F 30.7 °F 32.0 °F 87% 30.03 in 10.0 mi North 5.8 mph - N/A   Clear
10:55 PM 35.6 °F 32.8 °F 32.0 °F 87% 30.03 in 10.0 mi North 3.5 mph - N/A   Clear
11:15 PM 33.8 °F - 30.2 °F 87% 30.03 in 10.0 mi Calm Calm - N/A   Clear
11:35 PM 35.6 °F - 32.0 °F 87% 30.03 in 10.0 mi Calm Calm - N/A   Clear
11:55 PM 33.8 °F 30.8 °F 32.0 °F 93% 30.03 in 9.0 mi North 3.5 mph - N/A   Clear